CAPE
1682 1944 2200 2092 2057 1982 2197 2249 1987 1920 1795 1899 1654 1723 1725 1987 1558 1725 1899 2049 1927 1665 1885 2138 2152 2632 2481 2705 3078 3052 3358 2996 3410 3428 3338 3265 3410 3511 3395 3146 3352 3587 3864 3386 3146 2971 2649 3262 3304 3298 2868 2396 2348 2404 2352 2608 2350 2072 2593 2770 3477 4193 4278 4010 3783 3518 3380 3354 3173 3000 2911 2544 2389 2142 2057 1985 1740 1710 1603 1197 1112 878 816 739 715
1622 1871 1971 1939 1680 1898 1680 1955 1819 1825 1741 1695 1538 1381 1470 1370 1481 1250 1674 1948 1602 1846 2357 1724 1995 2469 2387 2394 2352 2516 2802 2946 3160 3568 3375 3333 3706 3865 3544 3022 3532 3523 3470 3554 3487 3525 3472 2919 3294 3442 3082 2594 1948 2162 2281 1982 1740 1787 2964 3115 3715 3810 3851 3898 3528 3303 3096 2915 2763 2845 2424 2473 2294 2169 2143 2043 1946 1936 1724 913 868 979 987 905 793
1648 1688 1677 1671 1650 1832 1778 1852 1617 1564 1470 1604 1352 1396 1396 1352 1335 1401 1503 1462 1534 1858 2134 1964 1654 1931 2055 2105 2180 2298 2742 3006 3344 3062 3073 3403 3426 3401 2814 3310 3461 3498 3379 3130 3313 3340 3020 3112 3305 3082 2894 2645 3002 2744 2321 1892 1696 1192 2152 2346 2896 3424 3559 3751 3196 3342 3270 2939 2885 2565 2552 2498 2372 2331 2242 2212 2247 2139 1778 927 794 1020 1162 962 847
1270 1146 1531 1440 1449 1658 1546 1694 1547 1418 1368 1145 1070 1109 1210 1070 1160 844 928 869 1390 1505 1596 1613 1146 1884 1668 2237 2424 2328 2194 2315 3395 2964 2570 3248 3516 3395 3491 2871 2579 3072 3013 2640 2630 2374 2438 2484 2570 2652 2690 2791 1986 2525 2108 1810 1909 2391 2406 1675 3001 3551 3056 2691 3767 3563 3198 2744 2425 2676 2501 2448 2440 2331 2322 2310 2232 1838 1164 1035 1262 1002 553 706 1096
1004 1135 1639 1185 1207 1384 1590 1422 1536 1283 1212 1109 892 818 684 664 1058 877 878 872 735 1098 1457 1413 1733 2594 1965 2608 2544 2643 2898 2984 3419 3242 3089 3225 3252 3318 3401 3218 2939 2787 2914 2833 3860 3206 2826 2556 2310 2722 2892 2702 3117 2510 2200 2272 2359 2412 1737 1219 2147 1948 3053 3252 3262 3469 3214 2853 2415 2468 2508 2592 2591 2539 2363 2264 1378 907 898 988 946 1081 1654 2038 1973
2066 1335 1616 1279 1201 1553 1456 1460 1279 1240 1138 1011 1228 490 409 322 593 833 825 765 686 655 1202 1161 1026 2679 2129 2099 2310 2939 3219 3325 3378 3040 2745 2704 2932 3258 3045 3121 3120 3054 2998 2947 2802 2760 2911 2838 2758 2775 2382 2407 2512 2347 2788 2180 2060 1406 1343 2294 2621 2495 1834 2812 3049 2419 2024 2359 2609 2680 2397 2063 1898 1717 1336 1142 1419 1469 1399 1763 1916 2179 2436 2465 2370
3685 1715 1391 1110 1083 991 1034 1021 941 1275 1195 1101 1185 532 393 495 566 220 444 564 532 484 1135 970 865 2098 2222 2670 2696 2801 3000 2772 2656 3020 2908 2614 2636 2511 2735 2592 2416 2876 2811 2618 2597 2330 2162 2014 1635 1577 1586 1978 2303 2328 2456 2010 2133 1473 2012 2789 3614 2919 3019 2726 2911 2962 2713 2616 2503 2278 2076 1988 1820 1543 1503 1810 1690 1781 2226 2221 2093 2188 2406 2412 2474
3000 3569 1693 1223 1391 1183 838 776 771 681 1004 1371 1190 797 1309 1560 1665 1509 1352 1421 253 224 227 790 830 1645 2711 2508 2482 2508 2743 3021 2718 2993 3174 2717 2582 2812 2621 2511 2693 2538 2302 2161 2332 1998 1500 1297 1190 1060 1240 1193 1489 1545 1472 1311 2657 2953 2990 3161 2838 2216 2092 2556 2627 2697 2617 2579 2339 2111 2139 2080 1836 1628 1806 1744 2358 2509 2403 2311 2210 2309 2399 2361 2445
2641 2881 3156 2248 2072 2226 2017 1906 1878 1509 2439 1648 1651 1428 1378 1615 1400 2179 2848 2696 2326 2151 1775 628 714 1202 2460 2579 2589 2491 2326 2114 1707 1824 2144 2912 2728 2410 2629 2298 2342 2406 2357 2557 2009 1299 1330 1120 995 831 3653 3514 3738 2436 1602 1315 2401 2195 2590 1709 1840 1836 2653 2935 2762 2392 2134 2145 2376 2520 2214 1840 1718 1807 2167 2226 2791 2613 2205 2266 2342 2399 2356 2229 2144
2653 2865 2267 2525 2181 2638 2192 1890 1775 1842 2500 2851 2170 2062 2073 2126 3048 3150 2946 2968 3066 2963 2353 1910 1498 845 705 1595 2116 2268 2169 2055 1579 1668 2308 2576 2690 2608 2336 1956 2127 2154 2436 2803 2164 1224 1286 1348 2060 3090 3002 3159 3179 3163 2964 4051 2462 2048 2053 2253 2706 2628 2414 2078 2041 2238 2515 2422 2122 2079 1907 1715 1704 2033 2454 2615 2875 2592 2236 2327 2356 2211 2036 1854 1578
1583 2307 2206 2122 1863 1885 1551 1338 1374 1766 1955 2944 3435 3603 3397 3223 3053 2890 2775 3060 2814 2456 1989 2132 1407 1117 850 632 890 1219 1454 1650 1160 891 878 1365 2854 2673 2559 2673 2136 2598 1960 2038 2119 1544 1560 1626 1416 1740 2098 2587 1494 2493 3307 3407 4124 2341 2259 2543 2830 1691 1513 1503 1566 1938 1832 1572 1756 1878 1704 1634 1816 2285 2438 2765 2811 2647 2340 2354 2203 1963 1830 1649 1531
1888 1895 1910 2012 2126 1830 1945 1531 1147 1345 1465 2099 2527 2891 3277 3196 2980 2682 2315 2284 2246 1896 1622 1802 1711 1441 1022 756 542 357 513 660 484 597 824 1072 1615 3111 2576 3058 2849 2231 2554 1933 1416 1093 901 823 759 905 980 1140 1560 1294 1742 2857 3063 3573 3208 3310 3115 3103 2489 2144 2180 2045 1864 1833 1619 1403 1348 1553 1734 1875 2459 2799 2934 2569 2309 2082 1859 1794 1654 1579 1616
1644 1750 1703 1656 1808 1767 1928 1890 1886 1872 1625 1584 2003 2320 2645 2813 2718 2416 1956 1638 2298 1843 1884 1981 1984 1737 1315 1056 816 554 418 543 607 675 805 1076 1338 2120 2238 2146 1390 1458 1319 1234 1172 1083 988 916 1004 791 1988 2909 2397 1396 2568 3209 4252 3066 2770 3046 3074 2898 2628 2810 3068 3060 3050 2646 2191 1849 1533 1608 1742 1985 2417 3007 2521 1669 1432 1361 1324 1386 1487 1592 1714
770 662 761 1061 1226 1480 1416 1554 1676 1770 1760 1767 1775 1988 1939 1796 1952 1974 1942 1814 1644 1909 1828 2456 2030 1819 1716 1473 1163 884 797 861 878 858 857 863 979 1434 2038 1925 1862 1547 1398 1210 1180 1207 1130 1410 1221 1103 1406 1033 1018 1137 2242 3106 3161 2600 2791 3088 3157 3792 4316 3979 3669 3341 2844 2279 1949 1536 1590 1792 1895 1987 2577 2274 1270 1030 1029 1034 1120 1217 1376 1556 1628
575 693 851 938 1067 1172 1223 1262 1317 1241 1177 1024 1054 1498 1537 1656 1555 1398 1293 1322 1407 1729 1707 2008 1793 1625 1552 1532 1345 1164 918 901 978 1010 1008 1020 995 1675 2164 2399 1882 1586 1364 1272 1180 1152 1212 1671 1445 1325 1351 990 1259 1740 2061 2448 2565 2476 2504 2629 2715 2320 2813 3339 3154 2364 1917 1731 1601 1533 1793 1957 2089 1997 1244 811 835 839 910 978 1153 1357 1538 1676 1800
664 645 667 776 897 937 916 952 996 1024 1048 996 875 1010 1108 1146 1218 1187 1093 1094 1102 1203 1931 2175 1585 879 872 1030 988 1228 1206 1063 827 791 964 1106 1232 2092 2597 2087 1627 1357 1230 1325 1439 1549 1474 1383 1476 1511 1669 1569 1440 1590 1891 2218 2585 2564 2414 2234 2294 2172 2245 3727 2349 1937 2016 1674 1725 1378 1342 1078 488 110 79 36 10 39 296 762 818 1238 1553 1927 1999
675 681 675 697 744 790 820 816 838 924 1007 1027 1025 1024 887 890 908 888 815 804 880 1121 1296 1681 1609 1418 852 537 424 584 870 1051 1002 772 851 972 1172 1948 2368 2132 1682 1535 1351 1283 1378 1294 1540 1789 1598 1291 1385 1456 1425 1427 1627 1806 1918 1989 1986 1817 1514 1537 1638 1743 1665 1482 1432 1268 1061 998 933 285 0 0 0 0 0 0 76 147 218 1137 1875 1997 2093
532 524 537 567 626 636 702 704 698 807 880 903 886 828 841 863 836 724 689 646 755 790 796 944 1148 1236 998 750 555 609 743 841 944 834 997 1178 1237 1420 2166 1922 1893 1612 1454 1369 1258 1158 1109 1246 1466 1497 1591 1677 1686 1672 1559 1469 1427 1495 1505 1427 1278 964 783 966 1221 1079 851 920 917 870 0 0 0 0 0 0 0 403 0 14 779 1697 1982 2121 2192
379 402 400 401 450 529 574 625 644 661 661 674 657 662 705 743 729 704 686 607 598 664 701 681 772 837 747 878 855 770 788 845 865 802 818 914 940 1016 1898 1482 1531 1568 1429 1317 1162 1143 1152 1156 1219 1254 1300 1312 1373 1408 1361 1292 1140 1019 919 810 706 622 534 491 523 525 486 438 287 196 0 0 0 0 0 0 1527 1574 1490 1493 1515 1780 1880 1544 1318
341 293 285 249 255 282 357 424 494 517 540 563 566 598 610 606 596 527 516 508 538 542 534 466 332 316 229 523 812 751 794 864 791 770 776 681 705 858 898 1025 1010 969 1046 1249 1311 1148 1050 962 998 1028 1027 965 965 1009 1035 1050 1003 920 831 729 645 628 486 448 418 355 280 248 234 208 0 0 6 3 0 0 1243 1580 1246 1278 1704 736 301 467 570
252 272 270 253 223 238 284 312 353 391 415 462 481 498 376 279 323 357 353 332 295 248 185 204 129 198 38 112 408 639 653 549 534 475 456 466 510 615 687 684 666 680 768 903 858 854 870 878 874 745 742 732 719 740 753 746 753 686 589 525 466 420 379 355 304 252 248 279 257 70 254 268 178 20 9 416 611 419 421 395 369 194 387 516 634
245 224 219 231 242 248 264 254 263 251 246 304 385 442 396 322 304 298 290 262 226 186 154 143 152 145 42 13 276 600 562 470 353 336 425 381 529 508 559 590 576 556 526 594 591 592 590 535 508 515 544 584 579 635 665 579 502 404 356 316 293 298 298 307 319 312 302 200 22 282 275 254 96 22 154 104 208 321 203 159 180 377 369 573 440
236 250 231 217 235 226 193 154 118 164 227 300 344 392 229 121 148 192 202 184 151 122 98 93 90 86 125 300 420 556 394 215 175 193 289 472 531 553 498 445 450 447 484 509 525 502 475 425 399 384 382 395 405 418 431 476 493 475 386 302 221 193 226 267 251 211 85 0 70 218 122 143 38 67 169 60 185 307 338 317 323 374 222 174 264
216 240 255 245 232 217 200 164 126 168 212 235 249 257 188 0 0 95 136 137 130 80 16 77 88 97 12 147 217 215 144 144 176 197 233 371 367 304 296 340 366 410 444 440 403 393 385 369 355 338 325 309 296 274 260 269 291 314 319 290 244 202 188 180 116 0 0 0 0 26 211 91 109 162 56 112 285 382 338 320 616 314 124 54 29
156 165 171 185 209 193 175 188 203 203 153 0 59 0 0 0 0 0 0 126 126 116 1 24 15 3 0 0 77 96 0 0 0 0 37 148 166 181 216 240 291 327 360 386 375 344 299 302 295 284 264 257 245 232 219 208 203 206 219 206 183 168 138 0 0 0 0 0 16 94 145 124 139 85 54 133 291 116 126 456 501 104 60 54 19
0 83 92 88 0 95 95 51 0 0 0 0 0 18 0 0 0 0 0 0 69 78 58 1 4 2 10 5 3 1 0 0 41 31 0 72 120 155 207 272 296 287 270 238 212 201 175 186 175 188 193 181 138 98 91 115 143 151 150 117 0 0 0 0 0 0 0 0 0 79 14 98 154 126 87 274 40 0 108 243 18 18 0 0 0
38 0 0 0 0 0 0 0 0 0 0 14 0 0 0 0 0 0 87 94 42 0 0 0 0 0 0 0 0 0 0 0 0 0 0 0 0 71 160 212 176 128 88 108 122 120 18 78 141 154 113 72 0 0 0 0 13 0 0 0 0 0 0 0 0 0 2 37 78 33 456 339 98 167 305 43 0 0 112 191 0 0 0 0 0
35 16 0 0 0 0 0 0 0 0 0 0 0 0 0 0 0 37 83 79 62 8 0 0 0 0 0 0 0 0 0 0 0 0 0 0 0 23 49 98 100 100 108 120 142 102 20 54 105 92 53 0 0 0 0 0 0 0 0 0 0 0 29 60 267 81 10 6 92 238 152 15 0 0 6 0 0 0 110 11 0 0 0 0 0
0 0 0 0 2 0 0 0 0 0 0 0 0 0 0 0 0 0 0 0 0 2 0 0 0 0 0 0 0 0 0 0 0 0 0 0 0 0 59 117 121 102 103 85 6 17 0 0 0 0 0 0 0 0 0 0 2 22 29 0 0 0 0 0 0 0 1 0 0 0 0 0 0 0 0 0 0 0 5 0 0 0 0 0 0
0 0 0 0 0 0 0 0 0 0 0 0 0 0 0 0 0 0 0 0 0 0 0 0 0 0 0 0 0 0 0 0 0 0 0 0 6 31 30 0 0 0 0 0 0 0 0 0 0 0 0 0 0 0 0 0 0 0 0 0 0 0 0 0 0 0 0 0 0 0 0 0 0 0 0 0 0 0 0 0 0 0 0 0 0
0 0 0 0 0 0 0 0 0 0 0 0 0 0 0 0 0 0 0 0 0 0 0 0 0 0 0 0 0 0 0 0 0 0 0 0 0 0 0 0 0 0 0 0 0 0 0 0 0 0 0 0 0 0 0 0 0 0 0 0 0 0 0 0 0 0 0 0 0 0 0 0 0 0 0 0 0 0 0 0 0 0 0 0 0
217 0 0 0 0 0 0 0 0 0 0 0 0 0 0 0 0 0 0 0 0 0 0 0 0 0 0 0 0 0 0 0 0 0 0 0 0 0 0 0 0 0 0 0 0 0 0 0 0 0 0 0 0 0 0 0 0 0 0 0 0 0 0 0 0 0 0 0 0 0 0 0 0 0 0 0 0 0 0 0 0 0 0 0 0
0 0 0 0 0 0 0 0 0 0 0 0 0 0 0 0 0 0 0 0 0 0 0 0 0 0 0 0 0 0 0 0 0 0 0 0 0 0 0 0 0 0 0 0 0 0 0 0 0 0 0 0 0 0 0 0 0 0 0 0 0 0 0 0 0 0 0 0 0 0 0 0 0 0 0 0 0 0 0 0 0 0 0 0 0
0 0 0 0 0 0 0 0 0 0 0 0 0 0 0 0 0 0 0 0 0 0 0 0 0 0 0 0 0 0 0 0 0 0 0 0 0 0 0 0 0 0 0 0 0 0 0 0 0 0 0 0 0 0 0 0 0 0 0 0 0 0 0 0 0 0 0 0 0 0 0 0 0 0 0 0 0 0 0 0 0 0 0 0 0
0 0 0 0 0 0 0 0 0 0 0 0 0 0 0 0 0 0 0 0 0 0 0 0 0 0 0 0 0 0 0 0 0 0 0 0 0 0 0 0 0 0 0 0 0 0 0 0 0 0 0 0 0 0 0 0 0 0 0 0 0 0 0 0 0 0 0 0 0 0 0 0 0 0 0 0 0 0 0 0 0 0 0 0 0
0 0 0 0 2 2 0 0 0 0 0 0 0 0 0 0 0 0 0 18 0 0 0 0 0 0 0 0 0 0 0 0 0 0 0 0 0 0 0 0 0 0 0 0 0 0 0 0 0 0 0 0 0 0 0 0 0 0 0 0 0 0 0 0 0 0 0 0 0 0 0 0 0 0 0 0 0 0 0 0 0 0 0 0 0
0 0 0 0 0 0 0 0 0 0 0 0 0 0 0 0 0 0 0 0 2 0 0 0 0 0 0 0 0 0 0 0 0 0 0 0 0 0 0 0 0 0 0 0 0 0 0 0 0 0 0 0 0 0 0 0 0 0 0 0 0 0 0 0 0 0 0 0 0 0 0 0 0 0 0 0 0 0 0 0 0 0 0 0 0
0 0 0 0 0 0 0 0 0 0 0 0 0 0 0 0 0 0 0 0 0 0 0 0 0 0 0 0 0 0 0 0 0 0 0 0 0 0 0 0 4 0 0 0 0 0 0 0 0 0 0 0 0 0 0 0 0 0 0 0 0 0 0 0 0 0 0 0 0 0 0 0 0 0 0 0 0 0 0 0 0 0 0 0 0
0 0 0 0 0 0 0 1 0 0 0 0 0 0 0 0 0 0 0 0 0 0 14 0 0 0 0 0 0 0 0 0 0 0 0 0 0 0 0 0 0 0 0 0 0 0 0 0 0 0 0 0 0 0 0 0 0 0 0 0 0 0 0 0 0 0 0 0 0 0 0 0 0 0 0 0 0 0 0 0 0 0 0 0 0
0 0 0 0 0 0 0 0 8 1 19 0 0 0 0 0 0 0 0 0 0 0 0 0 0 0 0 0 0 0 0 0 0 0 0 0 0 0 0 0 0 0 0 0 0 0 0 0 0 0 0 0 0 0 0 0 0 0 0 0 0 0 0 0 0 0 0 0 0 0 0 0 0 0 0 0 0 0 0 0 0 0 0 0 0
0 0 0 0 0 0 0 0 0 0 0 0 27 0 16 0 0 0 0 0 0 0 0 0 0 0 0 0 0 0 0 0 0 0 0 0 0 0 0 0 0 0 0 0 0 0 0 0 0 0 0 0 0 0 0 0 0 0 0 0 0 0 0 0 0 0 0 0 0 0 0 0 0 0 0 0 0 0 0 0 0 0 0 0 0
0 0 0 0 0 0 0 0 0 1 41 9 0 0 0 0 0 0 0 0 0 0 0 0 0 0 0 0 0 0 0 0 0 0 0 0 0 0 0 0 0 0 0 0 0 0 0 0 0 0 0 0 0 0 0 0 0 0 0 0 0 0 0 0 0 0 0 0 0 0 0 0 0 0 0 0 0 0 0 0 0 0 0 0 0
105 0 0 0 0 0 0 0 0 0 0 0 0 0 5 0 0 0 1 0 0 0 0 0 0 0 0 0 0 0 0 0 1 0 0 0 0 0 0 0 0 0 0 0 0 0 0 0 0 0 0 0 0 0 0 0 0 0 0 0 0 0 0 0 0 0 0 0 0 0 0 0 0 0 0 0 0 0 0 0 0 0 0 0 0
68 43 7 0 0 0 0 0 0 0 0 34 32 1 13 0 0 0 0 0 0 0 0 0 0 0 0 0 0 0 0 0 0 0 0 0 0 0 0 0 0 0 0 0 0 0 0 0 0 0 0 0 0 0 0 0 0 0 0 0 0 0 0 0 0 0 0 0 0 0 0 0 0 0 0 0 0 0 0 0 0 0 0 0 0
151 26 21 3 0 0 0 42 13 0 26 27 0 0 0 0 0 0 0 0 0 0 0 0 0 0 0 0 0 0 0 0 0 0 0 0 0 0 0 0 0 0 0 0 0 0 0 0 0 0 0 0 0 0 0 0 0 0 0 0 0 0 0 0 0 0 0 0 0 0 0 0 0 0 0 0 0 0 0 0 0 0 0 0 0
0 0 29 25 9 10 18 2 6 0 0 0 0 0 0 0 0 0 0 0 0 0 0 0 0 0 0 0 0 0 0 0 0 0 0 0 0 0 0 0 0 0 0 0 0 0 0 0 0 0 0 0 0 0 1 0 0 0 0 0 0 0 1 1 1 1 0 0 0 0 0 0 0 0 0 0 0 0 0 0 0 0 0 0 0
168 3 12 0 0 11 11 1 5 0 0 0 0 0 0 0 0 0 0 0 0 0 0 0 0 0 0 0 0 0 0 0 0 0 0 0 0 0 0 0 0 0 0 0 0 0 0 0 0 0 0 0 0 0 1 1 0 0 1 1 1 1 0 0 0 0 0 0 0 0 0 0 0 0 0 0 0 0 0 0 0 0 0 0 0
167 0 2 18 4 0 0 4 4 66 0 0 0 0 0 0 0 0 0 0 0 0 0 0 0 0 0 0 0 0 0 0 0 0 0 0 0 0 0 0 0 0 0 0 0 0 0 0 0 0 1 3 7 3 2 0 0 0 0 0 0 0 0 0 0 0 0 0 0 0 0 0 0 0 0 0 0 0 0 0 0 0 0 0 2
152 28 24 2 8 20 13 39 11 30 0 2 1 0 0 0 0 0 0 0 0 0 0 0 0 0 0 0 0 0 0 0 0 0 0 0 0 0 0 0 0 0 0 0 0 0 0 1 8 4 2 2 1 1 1 0 1 0 0 0 0 0 0 0 0 0 0 0 0 0 0 0 0 0 0 0 0 0 0 0 0 0 0 0 0
232 189 152 68 39 4 13 18 2 1 1 0 0 0 0 0 0 0 0 0 0 0 0 0 0 0 0 0 0 0 0 0 0 0 0 0 0 0 0 0 0 0 0 0 0 0 0 0 1 2 2 1 1 2 1 2 2 1 0 0 0 0 0 0 0 0 0 0 0 0 0 0 0 0 0 0 0 0 0 1 2 3 3 2 1
179 118 0 0 0 0 0 1 0 0 0 0 0 0 0 0 0 0 0 0 0 0 0 0 0 0 0 0 0 0 0 0 0 0 0 0 0 0 0 0 1 1 1 0 0 0 0 0 2 2 2 2 1 2 2 2 1 0 0 0 0 0 0 0 0 0 0 0 0 0 0 0 0 0 0 0 1 2 4 3 2 5 2 2 2
Wind_Speed
17 16 14 13 15 13 13 13 12 12 12 13 12 11 10 9 8 9 10 8 8 8 7 6 6 5 5 5 5 4 4 5 5 5 5 5 5 5 5 5 4 3 3 1 1 2 3 3 2 3 4 4 3 3 6 7 6 5 5 5 5 6 7 6 5 4 2 5 6 4 2 4 4 5 3 3 4 4 4 6 6 6 7 8 6
19 16 15 13 15 14 14 14 13 15 15 15 15 15 13 11 8 9 8 9 9 9 8 7 7 6 6 8 7 6 6 6 5 6 5 6 5 6 8 7 6 4 4 3 3 3 5 4 2 2 2 2 3 4 9 7 8 7 7 9 9 8 9 10 8 7 4 5 5 4 4 5 3 3 4 3 3 4 4 6 6 8 8 7 6
18 16 15 14 16 15 16 15 15 14 15 17 15 17 16 14 11 11 11 8 8 8 8 7 8 8 9 10 10 9 9 8 7 7 7 7 6 5 7 8 6 5 5 5 6 5 4 5 5 5 4 4 5 3 7 5 5 7 8 9 8 8 9 11 11 8 6 4 5 5 6 5 4 3 2 4 6 7 8 8 8 8 8 7 6
16 15 15 14 15 17 16 16 15 15 14 16 17 18 17 16 15 14 15 13 10 9 9 8 11 10 10 11 11 11 10 10 9 8 7 8 8 7 7 7 7 6 6 6 6 7 6 6 6 6 6 6 4 7 7 6 5 7 9 6 8 8 9 10 10 10 9 5 4 5 5 5 4 3 4 5 5 6 10 9 10 9 7 5 5
16 14 13 13 14 16 16 16 16 15 15 16 16 17 17 19 19 18 17 15 14 14 12 11 11 12 10 13 13 11 11 11 11 10 10 10 9 9 8 8 8 7 6 6 6 8 7 7 6 5 8 6 6 6 7 9 7 9 10 7 6 10 9 9 8 8 8 5 4 5 5 6 6 4 6 7 6 7 9 9 10 9 7 6 5
15 15 14 14 13 16 16 16 16 16 15 16 16 17 18 18 19 19 18 16 15 16 15 13 14 14 12 12 14 13 13 13 12 11 11 11 11 11 10 10 9 8 7 7 6 7 8 7 9 10 9 9 8 8 10 9 8 8 8 8 8 9 9 7 7 6 7 6 6 5 6 5 6 5 4 6 6 7 9 10 12 12 11 7 5
17 15 15 15 13 14 16 16 17 17 16 15 16 17 19 22 23 22 19 17 16 17 17 16 15 15 14 14 14 14 12 12 13 13 12 13 12 12 12 11 12 11 11 10 9 8 9 8 10 9 7 11 12 12 11 11 12 10 9 9 10 12 10 8 8 8 7 7 7 7 5 5 7 5 5 6 8 11 12 11 11 13 14 12 7
20 19 17 16 15 15 16 17 17 17 17 17 18 18 20 22 24 23 25 22 18 17 18 16 15 15 15 15 14 14 13 13 14 14 15 14 16 15 13 14 14 14 14 13 9 12 18 17 13 10 11 5 8 13 12 9 12 15 16 16 15 13 12 10 10 10 10 9 9 7 8 8 7 9 9 11 12 10 12 13 11 11 11 12 13
20 22 22 19 18 20 21 21 21 19 19 18 20 21 20 20 20 23 25 25 26 24 21 19 16 13 14 15 15 14 17 22 20 17 14 14 17 17 17 16 16 15 16 15 18 24 16 11 9 13 12 10 9 11 8 11 14 17 15 18 17 16 14 14 14 13 10 11 9 10 11 10 10 11 11 12 14 11 10 13 12 11 11 11 9
24 28 32 32 31 31 30 29 29 25 22 22 22 22 21 21 23 24 23 24 24 22 22 21 21 19 18 17 17 20 20 21 22 21 20 16 15 17 19 19 19 19 18 16 21 21 16 16 15 14 15 16 15 14 16 9 12 16 17 18 18 17 17 16 15 14 15 14 14 13 13 12 11 12 13 14 14 13 12 12 12 10 11 10 11
33 34 32 26 23 23 23 22 22 20 19 21 24 24 24 23 23 23 23 23 22 22 23 23 22 20 20 22 24 22 21 21 23 26 26 23 19 19 22 22 22 22 20 20 21 22 20 17 17 17 18 18 17 15 15 13 11 12 16 16 17 17 18 16 14 15 15 15 16 16 15 15 14 15 14 14 15 15 14 14 12 12 12 11 9
36 34 28 24 26 31 26 24 23 22 23 21 22 21 23 24 24 23 23 23 23 24 25 24 24 23 24 25 25 25 24 23 26 27 27 26 25 22 21 23 23 23 23 25 22 23 21 20 18 19 20 19 19 19 17 14 10 10 14 13 14 14 16 17 16 15 17 16 15 15 16 15 15 15 14 15 14 15 15 14 14 12 11 11 11
37 34 29 28 31 30 26 25 27 27 24 25 23 23 25 26 25 24 24 23 24 25 26 26 27 27 27 27 27 28 27 25 28 29 28 26 28 29 28 27 27 29 29 27 26 25 24 23 21 19 18 20 22 21 20 16 15 13 12 12 12 12 13 13 15 16 18 18 18 16 17 17 16 15 16 15 16 13 14 13 14 13 13 12 12
39 36 32 30 32 31 30 29 29 30 31 31 29 27 27 27 28 28 28 26 24 24 26 27 27 27 27 28 29 29 29 26 28 31 30 29 27 27 29 29 31 30 27 27 28 27 27 26 24 22 22 24 25 25 23 21 19 17 16 14 13 12 11 14 15 16 18 19 21 20 18 20 17 18 15 16 14 13 13 13 15 15 13 12 12
42 41 40 37 36 36 35 35 36 35 35 35 34 33 31 31 31 31 30 29 29 28 25 27 29 31 31 32 33 31 30 29 29 30 32 31 29 26 28 31 32 31 30 28 28 28 28 28 26 25 26 26 26 26 24 22 20 17 16 15 14 15 15 17 19 19 19 19 20 20 19 18 18 17 16 16 15 14 15 14 15 17 16 16 15
39 40 40 38 36 36 37 39 40 41 42 42 40 39 37 35 34 34 34 33 31 29 27 28 30 31 34 36 37 35 32 32 33 31 29 31 31 30 33 34 33 32 31 30 28 27 28 28 28 29 29 27 27 27 25 22 21 22 21 19 18 18 17 17 18 18 19 21 20 20 19 17 15 15 nan nan nan nan 16 17 18 19 19 18 17
31 32 32 31 30 30 31 34 37 41 44 46 44 41 39 37 37 37 37 37 35 33 31 32 34 35 37 38 40 38 36 34 33 32 30 29 31 31 33 35 34 33 34 32 31 30 28 28 30 31 30 28 27 27 26 25 25 25 23 23 21 19 21 21 22 21 20 18 15 14 13 12 nan nan nan nan nan nan nan 20 16 20 20 19 18
25 25 26 27 27 26 26 28 30 34 40 44 44 42 39 38 39 39 40 39 38 37 36 35 37 41 40 40 39 40 37 35 36 35 34 32 31 31 33 35 35 36 36 34 33 32 32 36 34 32 30 27 27 27 26 24 25 24 25 25 23 22 23 22 22 22 21 20 17 17 nan nan nan nan nan nan nan 19 nan nan 20 23 19 18 17
24 24 24 24 26 26 26 25 24 24 28 34 39 42 42 42 42 42 43 43 43 40 39 38 39 38 37 39 40 39 37 35 36 35 35 34 33 34 37 38 37 37 38 36 34 34 33 34 35 32 30 28 28 27 26 25 24 25 25 25 24 24 25 24 23 23 23 24 23 23 nan nan nan nan nan nan 17 23 26 22 23 22 20 18 18
25 25 24 24 24 25 24 25 24 22 21 23 27 31 35 38 40 42 42 41 41 41 44 44 40 36 37 39 38 37 36 35 34 35 35 37 39 39 38 40 38 37 38 39 36 34 33 31 31 32 32 30 27 26 26 26 26 25 26 26 26 23 26 24 23 24 24 24 23 23 nan nan nan nan nan nan 25 28 27 25 24 23 22 20 20
27 26 26 26 25 24 23 22 23 24 23 21 19 21 24 28 31 33 34 33 36 40 41 42 43 41 nan 34 39 40 37 34 32 30 33 35 36 35 35 39 37 35 35 37 35 33 33 33 33 31 29 27 26 25 24 25 26 27 26 26 25 26 26 23 21 21 22 22 22 nan 20 20 21 nan nan 22 25 23 23 22 22 22 22 21 21
27 27 28 27 26 24 23 23 23 22 22 25 24 24 25 26 26 27 27 28 32 35 35 37 39 39 nan nan 29 33 33 33 25 23 23 31 32 29 28 32 31 30 34 35 34 32 34 37 36 31 27 26 25 24 23 23 24 25 23 21 20 22 22 21 20 20 19 19 nan 18 17 18 nan nan 21 21 20 20 20 19 19 20 20 21 23
28 28 28 28 27 27 26 25 24 22 22 24 27 27 27 28 27 26 27 29 31 32 nan nan nan nan 35 28 24 22 22 24 26 24 26 33 31 29 29 30 33 33 36 39 40 40 40 38 35 33 27 25 22 22 21 20 21 20 15 16 16 19 21 21 21 19 nan nan nan 16 15 16 nan nan 21 nan 19 20 19 19 20 22 23 23 24
29 28 28 28 28 29 29 28 27 25 24 24 26 28 28 nan nan nan 26 27 28 nan nan nan nan nan nan 35 30 24 22 23 26 28 29 34 33 30 30 33 37 34 38 37 36 36 35 33 30 26 24 21 18 17 16 17 17 12 13 14 17 19 22 21 21 nan nan nan nan nan 18 nan 25 24 nan 22 22 22 21 22 25 27 28 nan nan
31 32 32 31 31 30 30 31 31 30 26 nan nan nan nan nan nan nan nan 28 28 28 nan nan nan nan nan nan nan nan nan nan nan nan nan 34 32 31 30 30 31 34 33 32 31 30 29 27 26 25 22 18 15 14 14 13 11 12 13 15 18 22 22 nan nan nan nan nan nan nan 22 26 28 nan nan 27 27 27 27 27 29 31 nan nan nan
nan nan nan nan nan nan nan nan nan nan nan nan nan nan nan nan nan nan nan nan nan nan nan nan nan nan nan nan nan nan nan nan nan nan nan nan 31 31 31 29 29 28 28 27 30 27 25 25 22 21 18 17 18 nan nan 17 17 18 18 20 nan nan nan nan nan nan nan nan nan nan nan nan 29 28 nan 31 nan nan 28 30 nan nan nan nan nan
nan nan nan nan nan nan nan nan nan nan nan nan nan nan nan nan nan nan nan nan nan nan nan nan nan nan nan nan nan nan nan nan nan nan nan nan nan nan 29 29 29 28 nan 28 30 29 nan nan 23 20 17 nan nan nan nan nan nan nan nan nan nan nan nan nan nan nan nan nan nan nan 30 31 nan 33 31 nan nan nan 30 32 nan nan nan nan nan
nan nan nan nan nan nan nan nan nan nan nan nan nan nan nan nan nan nan nan nan nan nan nan nan nan nan nan nan nan nan nan nan nan nan nan nan nan nan nan nan 30 nan 31 32 32 30 nan nan 27 nan nan nan nan nan nan nan nan nan nan nan nan nan nan nan 29 nan nan nan nan 33 35 nan nan nan nan nan nan nan 33 nan nan nan nan nan nan
nan nan nan nan nan nan nan nan nan nan nan nan nan nan nan nan nan nan nan nan nan nan nan nan nan nan nan nan nan nan nan nan nan nan nan nan nan nan nan 30 29 29 31 nan nan nan nan nan nan nan nan nan nan nan nan nan nan nan nan nan nan nan nan nan nan nan nan nan nan nan nan nan nan nan nan nan nan nan nan nan nan nan nan nan nan
nan nan nan nan nan nan nan nan nan nan nan nan nan nan nan nan nan nan nan nan nan nan nan nan nan nan nan nan nan nan nan nan nan nan nan nan nan nan nan nan nan nan nan nan nan nan nan nan nan nan nan nan nan nan nan nan nan nan nan nan nan nan nan nan nan nan nan nan nan nan nan nan nan nan nan nan nan nan nan nan nan nan nan nan nan
nan nan nan nan nan nan nan nan nan nan nan nan nan nan nan nan nan nan nan nan nan nan nan nan nan nan nan nan nan nan nan nan nan nan nan nan nan nan nan nan nan nan nan nan nan nan nan nan nan nan nan nan nan nan nan nan nan nan nan nan nan nan nan nan nan nan nan nan nan nan nan nan nan nan nan nan nan nan nan nan nan nan nan nan nan
43 nan nan nan nan nan nan nan nan nan nan nan nan nan nan nan nan nan nan nan nan nan nan nan nan nan nan nan nan nan nan nan nan nan nan nan nan nan nan nan nan nan nan nan nan nan nan nan nan nan nan nan nan nan nan nan nan nan nan nan nan nan nan nan nan nan nan nan nan nan nan nan nan nan nan nan nan nan nan nan nan nan nan nan nan
nan nan nan nan nan nan nan nan nan nan nan nan nan nan nan nan nan nan nan nan nan nan nan nan nan nan nan nan nan nan nan nan nan nan nan nan nan nan nan nan nan nan nan nan nan nan nan nan nan nan nan nan nan nan nan nan nan nan nan nan nan nan nan nan nan nan nan nan nan nan nan nan nan nan nan nan nan nan nan nan nan nan nan nan nan
nan nan nan nan nan nan nan nan nan nan nan nan nan nan nan nan nan nan nan nan nan nan nan nan nan nan nan nan nan nan nan nan nan nan nan nan nan nan nan nan nan nan nan nan nan nan nan nan nan nan nan nan nan nan nan nan nan nan nan nan nan nan nan nan nan nan nan nan nan nan nan nan nan nan nan nan nan nan nan nan nan nan nan nan nan
nan nan nan nan nan nan nan nan nan nan nan nan nan nan nan nan nan nan nan nan nan nan nan nan nan nan nan nan nan nan nan nan nan nan nan nan nan nan nan nan nan nan nan nan nan nan nan nan nan nan nan nan nan nan nan nan nan nan nan nan nan nan nan nan nan nan nan nan nan nan nan nan nan nan nan nan nan nan nan nan nan nan nan nan nan
nan nan nan nan nan nan nan nan nan nan nan nan nan nan nan nan nan nan nan nan nan nan nan nan nan nan nan nan nan nan nan nan nan nan nan nan nan nan nan nan nan nan nan nan nan nan nan nan nan nan nan nan nan nan nan nan nan nan nan nan nan nan nan nan nan nan nan nan nan nan nan nan nan nan nan nan nan nan nan nan nan nan nan nan nan
nan nan nan nan nan nan nan nan nan nan nan nan nan nan nan nan nan nan nan nan nan nan nan nan nan nan nan nan nan nan nan nan nan nan nan nan nan nan nan nan nan nan nan nan nan nan nan nan nan nan nan nan nan nan nan nan nan nan nan nan nan nan nan nan nan nan nan nan nan nan nan nan nan nan nan nan nan nan nan nan nan nan nan nan nan
nan nan nan nan nan nan nan nan nan nan nan nan nan nan nan nan nan nan nan nan nan nan nan nan nan nan nan nan nan nan nan nan nan nan nan nan nan nan nan nan nan nan nan nan nan nan nan nan nan nan nan nan nan nan nan nan nan nan nan nan nan nan nan nan nan nan nan nan nan nan nan nan nan nan nan nan nan nan nan nan nan nan nan nan nan
nan nan nan nan nan nan nan nan nan nan nan nan nan nan nan nan nan nan nan nan nan nan nan nan nan nan nan nan nan nan nan nan nan nan nan nan nan nan nan nan nan nan nan nan nan nan nan nan nan nan nan nan nan nan nan nan nan nan nan nan nan nan nan nan nan nan nan nan nan nan nan nan nan nan nan nan nan nan nan nan nan nan nan nan nan
nan nan nan nan nan nan nan nan nan nan nan nan nan nan nan nan nan nan nan nan nan nan nan nan nan nan nan nan nan nan nan nan nan nan nan nan nan nan nan nan nan nan nan nan nan nan nan nan nan nan nan nan nan nan nan nan nan nan nan nan nan nan nan nan nan nan nan nan nan nan nan nan nan nan nan nan nan nan nan nan nan nan nan nan nan
nan nan nan nan nan nan nan nan nan nan nan nan nan nan nan nan nan nan nan nan nan nan nan nan nan nan nan nan nan nan nan nan nan nan nan nan nan nan nan nan nan nan nan nan nan nan nan nan nan nan nan nan nan nan nan nan nan nan nan nan nan nan nan nan nan nan nan nan nan nan nan nan nan nan nan nan nan nan nan nan nan nan nan nan nan
nan nan nan nan nan nan nan nan nan nan nan nan nan nan nan nan nan nan nan nan nan nan nan nan nan nan nan nan nan nan nan nan nan nan nan nan nan nan nan nan nan nan nan nan nan nan nan nan nan nan nan nan nan nan nan nan nan nan nan nan nan nan nan nan nan nan nan nan nan nan nan nan nan nan nan nan nan nan nan nan nan nan nan nan nan
54 nan nan nan nan nan nan nan nan nan nan nan nan nan nan nan nan nan nan nan nan nan nan nan nan nan nan nan nan nan nan nan nan nan nan nan nan nan nan nan nan nan nan nan nan nan nan nan nan nan nan nan nan nan nan nan nan nan nan nan nan nan nan nan nan nan nan nan nan nan nan nan nan nan nan nan nan nan nan nan nan nan nan nan nan
nan nan nan nan nan nan nan nan nan nan nan nan nan nan nan nan nan nan nan nan nan nan nan nan nan nan nan nan nan nan nan nan nan nan nan nan nan nan nan nan nan nan nan nan nan nan nan nan nan nan nan nan nan nan nan nan nan nan nan nan nan nan nan nan nan nan nan nan nan nan nan nan nan nan nan nan nan nan nan nan nan nan nan nan nan
55 nan nan nan nan nan nan nan nan nan nan nan nan nan nan nan nan nan nan nan nan nan nan nan nan nan nan nan nan nan nan nan nan nan nan nan nan nan nan nan nan nan nan nan nan nan nan nan nan nan nan nan nan nan nan nan nan nan nan nan nan nan nan nan nan nan nan nan nan nan nan nan nan nan nan nan nan nan nan nan nan nan nan nan nan
nan nan nan nan nan nan nan nan nan nan nan nan nan nan nan nan nan nan nan nan nan nan nan nan nan nan nan nan nan nan nan nan nan nan nan nan nan nan nan nan nan nan nan nan nan nan nan nan nan nan nan nan nan nan nan nan nan nan nan nan nan nan nan nan nan nan nan nan nan nan nan nan nan nan nan nan nan nan nan nan nan nan nan nan nan
56 nan nan nan nan nan nan nan nan nan nan nan nan nan nan nan nan nan nan nan nan nan nan nan nan nan nan nan nan nan nan nan nan nan nan nan nan nan nan nan nan nan nan nan nan nan nan nan nan nan nan nan nan nan nan nan nan nan nan nan nan nan nan nan nan nan nan nan nan nan nan nan nan nan nan nan nan nan nan nan nan nan nan nan nan
57 nan nan nan nan nan nan nan nan nan nan nan nan nan nan nan nan nan nan nan nan nan nan nan nan nan nan nan nan nan nan nan nan nan nan nan nan nan nan nan nan nan nan nan nan nan nan nan nan nan nan nan nan nan nan nan nan nan nan nan nan nan nan nan nan nan nan nan nan nan nan nan nan nan nan nan nan nan nan nan nan nan nan nan nan
54 nan nan nan nan nan nan nan nan nan nan nan nan nan nan nan nan nan nan nan nan nan nan nan nan nan nan nan nan nan nan nan nan nan nan nan nan nan nan nan nan nan nan nan nan nan nan nan nan nan nan nan nan nan nan nan nan nan nan nan nan nan nan nan nan nan nan nan nan nan nan nan nan nan nan nan nan nan nan nan nan nan nan nan nan
56 55 55 nan nan nan nan nan nan nan nan nan nan nan nan nan nan nan nan nan nan nan nan nan nan nan nan nan nan nan nan nan nan nan nan nan nan nan nan nan nan nan nan nan nan nan nan nan nan nan nan nan nan nan nan nan nan nan nan nan nan nan nan nan nan nan nan nan nan nan nan nan nan nan nan nan nan nan nan nan nan nan nan nan nan
52 53 nan nan nan nan nan nan nan nan nan nan nan nan nan nan nan nan nan nan nan nan nan nan nan nan nan nan nan nan nan nan nan nan nan nan nan nan nan nan nan nan nan nan nan nan nan nan nan nan nan nan nan nan nan nan nan nan nan nan nan nan nan nan nan nan nan nan nan nan nan nan nan nan nan nan nan nan nan nan nan nan nan nan nan
Wind_Direction
266 256 258 250 257 265 269 272 276 272 273 272 274 270 264 256 262 270 272 276 269 265 257 258 254 241 257 266 278 267 273 272 279 284 290 297 300 302 304 309 310 321 327 12 326 291 304 276 260 285 275 256 262 274 297 313 298 316 324 322 327 324 322 334 351 35 2 337 337 328 330 278 276 289 279 300 299 301 323 333 344 345 355 360 353
270 264 263 256 261 270 263 265 271 267 275 274 270 272 270 267 262 259 279 281 279 272 267 265 254 253 239 241 255 264 259 259 265 273 280 289 295 303 307 315 318 329 323 326 333 318 319 336 332 301 318 322 308 271 268 298 316 314 318 321 326 329 322 325 342 323 328 288 283 303 301 290 273 303 303 304 324 318 335 346 347 352 7 12 7
272 271 269 266 258 270 262 261 259 261 263 273 279 275 276 274 272 272 287 281 275 279 274 267 260 263 253 246 255 248 250 253 258 269 279 284 292 284 285 304 312 319 324 321 315 310 317 332 338 336 339 312 284 291 285 277 290 305 303 290 306 321 319 319 311 310 308 307 315 299 309 301 315 350 340 336 337 338 337 343 350 354 4 20 19
277 276 271 274 263 263 262 260 264 258 260 258 269 271 273 277 275 275 273 275 282 276 280 270 254 261 256 254 254 250 250 252 255 265 269 273 280 286 279 285 294 306 309 310 319 319 324 334 348 340 328 318 309 300 303 325 337 301 284 290 292 300 311 311 314 320 310 306 296 310 314 310 323 342 338 335 335 332 329 340 342 352 3 26 22
282 270 266 275 267 267 263 261 262 258 260 260 266 268 265 270 271 271 267 265 263 270 266 269 262 259 260 256 259 252 252 251 254 253 252 262 268 270 270 275 285 291 293 293 302 303 307 307 305 321 311 311 310 320 320 315 327 302 301 294 317 314 315 310 314 316 325 334 325 311 301 303 315 327 326 316 305 311 321 325 331 330 339 352 344
270 268 263 273 271 273 272 265 262 260 256 253 254 262 266 269 270 273 271 271 267 270 274 272 267 263 261 258 255 258 258 260 257 253 251 255 261 263 264 266 276 280 282 288 291 293 298 300 315 313 308 310 320 312 306 304 289 284 288 309 315 304 291 296 306 306 301 311 316 300 285 282 280 295 290 284 298 308 304 311 311 312 313 314 327
245 255 262 275 271 269 270 267 264 262 263 259 258 258 254 251 250 250 256 273 273 265 274 270 265 267 271 269 264 261 264 261 259 259 259 259 264 258 258 257 254 257 262 266 263 276 278 266 245 233 286 312 322 317 308 302 303 301 290 291 282 280 287 286 282 278 280 276 279 284 283 295 298 287 271 269 285 300 300 290 296 310 314 316 327
235 236 251 264 264 267 265 264 264 263 260 264 265 262 252 251 251 250 250 244 252 264 265 274 271 269 272 274 274 266 267 266 257 254 260 262 260 263 258 257 256 255 250 248 253 255 247 248 267 266 248 226 249 264 272 282 304 297 299 291 288 287 289 291 280 275 273 275 287 288 297 297 271 288 291 281 274 273 276 292 289 294 299 311 324
236 232 234 244 252 252 251 251 253 258 256 260 261 262 259 253 251 250 247 249 247 242 236 246 258 268 276 282 280 277 263 257 254 245 233 249 263 262 263 257 255 255 250 246 243 244 252 270 264 258 259 256 260 276 299 338 308 300 296 292 294 295 294 289 289 286 289 291 290 292 288 278 286 284 275 283 283 293 294 287 297 298 301 303 312
236 230 228 225 222 228 231 232 230 230 240 249 251 255 257 255 250 249 248 251 251 248 249 245 248 248 250 254 255 249 246 247 243 243 243 246 259 264 264 261 256 254 253 249 255 273 274 261 259 266 259 249 243 240 238 239 269 285 293 293 296 295 294 291 289 295 296 291 291 288 280 282 283 288 291 298 297 291 282 285 286 291 292 301 315
232 234 239 245 253 255 260 264 261 255 245 235 236 240 248 248 249 248 247 248 252 252 251 251 251 257 259 264 268 262 255 248 237 243 241 239 246 260 264 264 263 257 255 250 257 258 253 253 252 248 255 263 257 248 240 234 232 272 295 300 303 298 295 293 295 298 295 295 296 293 294 293 295 295 293 294 293 293 296 294 294 292 290 286 284
236 238 246 248 250 252 240 241 249 246 251 258 258 255 250 250 247 246 246 244 247 251 254 255 259 261 265 270 272 273 269 259 253 246 245 247 248 250 254 262 263 263 258 259 256 257 261 258 253 254 255 256 255 255 251 241 231 243 254 271 281 288 294 299 301 296 298 298 295 299 297 300 299 296 298 293 293 292 296 292 295 292 287 287 296
242 242 239 243 246 254 260 257 254 251 249 255 259 258 257 254 251 248 247 248 251 254 259 261 263 266 269 274 274 271 268 262 265 261 256 251 251 256 253 251 255 256 259 258 256 255 253 250 249 250 251 258 259 259 258 251 255 270 281 274 281 292 303 309 311 307 298 297 299 295 298 297 295 300 304 303 299 294 294 294 297 296 296 295 296
250 250 251 246 245 249 254 257 256 254 252 250 249 250 251 252 251 248 248 248 251 258 261 264 265 267 273 276 274 271 267 259 261 265 260 255 252 258 261 256 256 259 258 256 255 254 251 251 253 252 250 248 247 247 248 248 256 262 264 266 269 271 284 307 311 305 297 298 297 297 295 294 296 298 306 305 298 299 296 302 300 297 298 302 301
249 252 254 252 250 248 248 248 248 248 250 250 250 250 250 250 250 251 251 250 249 250 257 266 266 265 264 269 269 266 264 262 264 263 262 256 253 258 262 259 258 256 255 253 252 252 255 257 256 256 255 251 248 245 248 249 249 250 257 260 264 266 271 277 281 288 289 293 297 300 296 293 295 295 296 297 305 307 306 305 301 302 302 298 295
247 250 252 253 254 254 254 252 249 246 247 248 250 248 248 248 249 247 248 248 249 251 252 258 264 266 268 268 265 262 259 255 260 261 258 257 255 259 260 260 260 259 256 253 250 248 252 254 256 255 254 252 244 239 244 251 254 254 253 258 262 264 266 280 287 290 286 282 283 283 284 283 283 288 nan nan nan nan 293 292 289 290 288 287 289
243 245 246 246 249 253 258 259 254 248 244 246 246 247 248 249 250 249 248 246 249 253 255 254 255 257 259 258 261 259 256 249 248 253 255 254 262 263 264 261 262 260 256 252 248 243 244 251 252 254 252 251 247 244 240 245 257 256 257 261 263 265 263 261 267 270 269 272 276 277 279 279 nan nan nan nan nan nan nan 282 287 288 283 281 287
241 243 244 244 246 249 256 262 261 253 247 245 244 245 247 248 250 251 250 249 250 251 253 255 257 256 258 257 257 257 253 248 246 246 249 253 264 266 266 266 262 260 257 252 251 245 242 251 252 253 254 252 246 244 242 252 259 257 257 259 260 263 263 262 267 270 271 275 274 267 nan nan nan nan nan nan nan 292 nan nan 290 282 280 284 286
239 241 243 246 247 248 250 255 258 259 253 247 244 243 245 248 251 252 250 251 251 252 254 257 259 264 266 265 265 258 251 247 246 247 247 252 261 262 264 265 264 260 258 253 251 248 243 244 250 251 253 254 250 249 247 252 261 259 260 261 262 267 270 266 267 265 264 263 264 263 nan nan nan nan nan nan 257 279 296 293 284 280 283 280 281
243 243 245 247 249 250 252 253 253 251 252 249 241 238 240 244 248 249 248 248 249 251 252 251 253 255 256 260 256 252 249 246 245 244 246 247 256 261 260 263 265 262 254 248 245 247 246 246 244 245 248 253 255 254 255 255 261 262 262 265 268 270 269 267 273 274 274 275 277 276 nan nan nan nan nan nan 276 279 288 289 287 284 279 276 276
248 247 247 249 251 254 255 256 256 255 253 249 245 242 240 243 244 244 246 245 248 250 250 249 249 248 nan 250 259 253 251 251 246 240 246 247 250 261 262 259 258 259 252 244 240 242 247 247 247 246 249 252 256 256 258 257 262 267 269 273 275 272 269 270 273 268 277 279 280 nan 277 277 277 nan nan 277 277 279 281 281 281 282 278 272 272
257 255 255 256 257 256 256 257 257 256 256 255 252 250 246 246 248 248 249 249 249 250 248 246 245 240 nan nan 257 250 248 254 252 239 242 249 255 262 264 254 253 256 250 244 239 236 243 249 249 249 247 247 247 250 254 261 267 269 274 281 274 269 272 277 276 277 276 278 nan 278 279 279 nan nan 275 273 273 275 275 274 272 272 275 281 280
261 260 259 260 261 261 259 257 256 256 255 258 260 256 250 248 247 251 253 251 247 249 nan nan nan nan 243 254 264 259 254 261 267 267 256 253 257 264 260 251 240 247 244 240 236 234 238 244 247 248 242 236 237 240 243 248 259 270 275 270 268 267 272 276 278 276 nan nan nan 278 283 286 nan nan 280 nan 273 272 269 271 274 279 281 281 279
259 262 261 260 260 261 262 261 258 256 258 260 262 260 254 nan nan nan 248 248 246 nan nan nan nan nan nan 259 268 269 267 270 268 262 263 257 256 257 254 247 239 240 242 239 235 234 234 237 238 230 230 233 235 238 242 254 264 261 259 258 259 264 271 275 277 nan nan nan nan nan 286 nan 283 285 nan 284 281 279 276 275 278 279 282 nan nan
254 255 257 260 261 262 262 262 261 259 257 nan nan nan nan nan nan nan nan 249 248 246 nan nan nan nan nan nan nan nan nan nan nan nan nan 255 253 251 252 247 239 232 239 237 231 229 228 224 224 225 226 225 228 238 245 251 262 264 264 265 267 269 272 nan nan nan nan nan nan nan 284 282 283 nan nan 283 280 278 277 277 279 280 nan nan nan
nan nan nan nan nan nan nan nan nan nan nan nan nan nan nan nan nan nan nan nan nan nan nan nan nan nan nan nan nan nan nan nan nan nan nan nan 254 246 246 242 236 235 236 233 222 220 226 227 226 228 233 243 246 nan nan 253 258 264 269 271 nan nan nan nan nan nan nan nan nan nan nan nan 282 282 nan 278 nan nan 280 282 nan nan nan nan nan
nan nan nan nan nan nan nan nan nan nan nan nan nan nan nan nan nan nan nan nan nan nan nan nan nan nan nan nan nan nan nan nan nan nan nan nan nan nan 244 239 233 235 nan 232 228 229 nan nan 229 225 234 nan nan nan nan nan nan nan nan nan nan nan nan nan nan nan nan nan nan nan 279 283 nan 279 280 nan nan nan 282 286 nan nan nan nan nan
nan nan nan nan nan nan nan nan nan nan nan nan nan nan nan nan nan nan nan nan nan nan nan nan nan nan nan nan nan nan nan nan nan nan nan nan nan nan nan nan 240 nan 231 232 233 235 nan nan 228 nan nan nan nan nan nan nan nan nan nan nan nan nan nan nan 276 nan nan nan nan 277 275 nan nan nan nan nan nan nan 284 nan nan nan nan nan nan
nan nan nan nan nan nan nan nan nan nan nan nan nan nan nan nan nan nan nan nan nan nan nan nan nan nan nan nan nan nan nan nan nan nan nan nan nan nan nan 238 236 234 236 nan nan nan nan nan nan nan nan nan nan nan nan nan nan nan nan nan nan nan nan nan nan nan nan nan nan nan nan nan nan nan nan nan nan nan nan nan nan nan nan nan nan
nan nan nan nan nan nan nan nan nan nan nan nan nan nan nan nan nan nan nan nan nan nan nan nan nan nan nan nan nan nan nan nan nan nan nan nan nan nan nan nan nan nan nan nan nan nan nan nan nan nan nan nan nan nan nan nan nan nan nan nan nan nan nan nan nan nan nan nan nan nan nan nan nan nan nan nan nan nan nan nan nan nan nan nan nan
nan nan nan nan nan nan nan nan nan nan nan nan nan nan nan nan nan nan nan nan nan nan nan nan nan nan nan nan nan nan nan nan nan nan nan nan nan nan nan nan nan nan nan nan nan nan nan nan nan nan nan nan nan nan nan nan nan nan nan nan nan nan nan nan nan nan nan nan nan nan nan nan nan nan nan nan nan nan nan nan nan nan nan nan nan
254 nan nan nan nan nan nan nan nan nan nan nan nan nan nan nan nan nan nan nan nan nan nan nan nan nan nan nan nan nan nan nan nan nan nan nan nan nan nan nan nan nan nan nan nan nan nan nan nan nan nan nan nan nan nan nan nan nan nan nan nan nan nan nan nan nan nan nan nan nan nan nan nan nan nan nan nan nan nan nan nan nan nan nan nan
nan nan nan nan nan nan nan nan nan nan nan nan nan nan nan nan nan nan nan nan nan nan nan nan nan nan nan nan nan nan nan nan nan nan nan nan nan nan nan nan nan nan nan nan nan nan nan nan nan nan nan nan nan nan nan nan nan nan nan nan nan nan nan nan nan nan nan nan nan nan nan nan nan nan nan nan nan nan nan nan nan nan nan nan nan
nan nan nan nan nan nan nan nan nan nan nan nan nan nan nan nan nan nan nan nan nan nan nan nan nan nan nan nan nan nan nan nan nan nan nan nan nan nan nan nan nan nan nan nan nan nan nan nan nan nan nan nan nan nan nan nan nan nan nan nan nan nan nan nan nan nan nan nan nan nan nan nan nan nan nan nan nan nan nan nan nan nan nan nan nan
nan nan nan nan nan nan nan nan nan nan nan nan nan nan nan nan nan nan nan nan nan nan nan nan nan nan nan nan nan nan nan nan nan nan nan nan nan nan nan nan nan nan nan nan nan nan nan nan nan nan nan nan nan nan nan nan nan nan nan nan nan nan nan nan nan nan nan nan nan nan nan nan nan nan nan nan nan nan nan nan nan nan nan nan nan
nan nan nan nan nan nan nan nan nan nan nan nan nan nan nan nan nan nan nan nan nan nan nan nan nan nan nan nan nan nan nan nan nan nan nan nan nan nan nan nan nan nan nan nan nan nan nan nan nan nan nan nan nan nan nan nan nan nan nan nan nan nan nan nan nan nan nan nan nan nan nan nan nan nan nan nan nan nan nan nan nan nan nan nan nan
nan nan nan nan nan nan nan nan nan nan nan nan nan nan nan nan nan nan nan nan nan nan nan nan nan nan nan nan nan nan nan nan nan nan nan nan nan nan nan nan nan nan nan nan nan nan nan nan nan nan nan nan nan nan nan nan nan nan nan nan nan nan nan nan nan nan nan nan nan nan nan nan nan nan nan nan nan nan nan nan nan nan nan nan nan
nan nan nan nan nan nan nan nan nan nan nan nan nan nan nan nan nan nan nan nan nan nan nan nan nan nan nan nan nan nan nan nan nan nan nan nan nan nan nan nan nan nan nan nan nan nan nan nan nan nan nan nan nan nan nan nan nan nan nan nan nan nan nan nan nan nan nan nan nan nan nan nan nan nan nan nan nan nan nan nan nan nan nan nan nan
nan nan nan nan nan nan nan nan nan nan nan nan nan nan nan nan nan nan nan nan nan nan nan nan nan nan nan nan nan nan nan nan nan nan nan nan nan nan nan nan nan nan nan nan nan nan nan nan nan nan nan nan nan nan nan nan nan nan nan nan nan nan nan nan nan nan nan nan nan nan nan nan nan nan nan nan nan nan nan nan nan nan nan nan nan
nan nan nan nan nan nan nan nan nan nan nan nan nan nan nan nan nan nan nan nan nan nan nan nan nan nan nan nan nan nan nan nan nan nan nan nan nan nan nan nan nan nan nan nan nan nan nan nan nan nan nan nan nan nan nan nan nan nan nan nan nan nan nan nan nan nan nan nan nan nan nan nan nan nan nan nan nan nan nan nan nan nan nan nan nan
nan nan nan nan nan nan nan nan nan nan nan nan nan nan nan nan nan nan nan nan nan nan nan nan nan nan nan nan nan nan nan nan nan nan nan nan nan nan nan nan nan nan nan nan nan nan nan nan nan nan nan nan nan nan nan nan nan nan nan nan nan nan nan nan nan nan nan nan nan nan nan nan nan nan nan nan nan nan nan nan nan nan nan nan nan
nan nan nan nan nan nan nan nan nan nan nan nan nan nan nan nan nan nan nan nan nan nan nan nan nan nan nan nan nan nan nan nan nan nan nan nan nan nan nan nan nan nan nan nan nan nan nan nan nan nan nan nan nan nan nan nan nan nan nan nan nan nan nan nan nan nan nan nan nan nan nan nan nan nan nan nan nan nan nan nan nan nan nan nan nan
268 nan nan nan nan nan nan nan nan nan nan nan nan nan nan nan nan nan nan nan nan nan nan nan nan nan nan nan nan nan nan nan nan nan nan nan nan nan nan nan nan nan nan nan nan nan nan nan nan nan nan nan nan nan nan nan nan nan nan nan nan nan nan nan nan nan nan nan nan nan nan nan nan nan nan nan nan nan nan nan nan nan nan nan nan
nan nan nan nan nan nan nan nan nan nan nan nan nan nan nan nan nan nan nan nan nan nan nan nan nan nan nan nan nan nan nan nan nan nan nan nan nan nan nan nan nan nan nan nan nan nan nan nan nan nan nan nan nan nan nan nan nan nan nan nan nan nan nan nan nan nan nan nan nan nan nan nan nan nan nan nan nan nan nan nan nan nan nan nan nan
264 nan nan nan nan nan nan nan nan nan nan nan nan nan nan nan nan nan nan nan nan nan nan nan nan nan nan nan nan nan nan nan nan nan nan nan nan nan nan nan nan nan nan nan nan nan nan nan nan nan nan nan nan nan nan nan nan nan nan nan nan nan nan nan nan nan nan nan nan nan nan nan nan nan nan nan nan nan nan nan nan nan nan nan nan
nan nan nan nan nan nan nan nan nan nan nan nan nan nan nan nan nan nan nan nan nan nan nan nan nan nan nan nan nan nan nan nan nan nan nan nan nan nan nan nan nan nan nan nan nan nan nan nan nan nan nan nan nan nan nan nan nan nan nan nan nan nan nan nan nan nan nan nan nan nan nan nan nan nan nan nan nan nan nan nan nan nan nan nan nan
260 nan nan nan nan nan nan nan nan nan nan nan nan nan nan nan nan nan nan nan nan nan nan nan nan nan nan nan nan nan nan nan nan nan nan nan nan nan nan nan nan nan nan nan nan nan nan nan nan nan nan nan nan nan nan nan nan nan nan nan nan nan nan nan nan nan nan nan nan nan nan nan nan nan nan nan nan nan nan nan nan nan nan nan nan
262 nan nan nan nan nan nan nan nan nan nan nan nan nan nan nan nan nan nan nan nan nan nan nan nan nan nan nan nan nan nan nan nan nan nan nan nan nan nan nan nan nan nan nan nan nan nan nan nan nan nan nan nan nan nan nan nan nan nan nan nan nan nan nan nan nan nan nan nan nan nan nan nan nan nan nan nan nan nan nan nan nan nan nan nan
260 nan nan nan nan nan nan nan nan nan nan nan nan nan nan nan nan nan nan nan nan nan nan nan nan nan nan nan nan nan nan nan nan nan nan nan nan nan nan nan nan nan nan nan nan nan nan nan nan nan nan nan nan nan nan nan nan nan nan nan nan nan nan nan nan nan nan nan nan nan nan nan nan nan nan nan nan nan nan nan nan nan nan nan nan
256 254 252 nan nan nan nan nan nan nan nan nan nan nan nan nan nan nan nan nan nan nan nan nan nan nan nan nan nan nan nan nan nan nan nan nan nan nan nan nan nan nan nan nan nan nan nan nan nan nan nan nan nan nan nan nan nan nan nan nan nan nan nan nan nan nan nan nan nan nan nan nan nan nan nan nan nan nan nan nan nan nan nan nan nan
260 258 nan nan nan nan nan nan nan nan nan nan nan nan nan nan nan nan nan nan nan nan nan nan nan nan nan nan nan nan nan nan nan nan nan nan nan nan nan nan nan nan nan nan nan nan nan nan nan nan nan nan nan nan nan nan nan nan nan nan nan nan nan nan nan nan nan nan nan nan nan nan nan nan nan nan nan nan nan nan nan nan nan nan nan